STARLINK-35588

Last updated on Fri Dec 12 2025 00:02:05 GMT+0000 (Coordinated Universal Time)

1 66424U 25259C 25345.51364939 .00063452 00000+0 15113-2 0 9996 2 66424 43.0067 55.1173 0003264 259.0080 101.0410 15.40744022 5972
UTC large
Height (km)
Speed (km/s)
/
Latitude / Longitude
Inclination (degrees)
Orbital Period (minutes)
Azimuth
Elevation
Range (km)
Doppler Factor

Next 0 passes for location: London (51.5072 / 0.1276)

Sorry there are no passes over London.